Skip Navigation Links weather.gov 
NOAA logo-Select to go to the NOAA homepage NDBC Title GraphicClick to go to NDBC home page   Select to go to the NWS homepage
Home About Us Contact Us
 
 
    
    Station List

 Data Access
    Mobile Access
    Classic Maps
         Recent
         DART®
    Obs Search
    Ship Obs Report
    BuoyCAMs
    TAO
    DODS
    OceanSITES
    HF Radar
    OSMC
    Dial-A-Buoy
    RSS Feeds Image indicating link to RSS feed access page
    Web Widget
    Email Access
    Web Data Guide
    Maintenance Schedule
    Station Status Report

 Program Info
    TAO
    DART®
    IOOS®

 Publications
    NDBC PEA
    NDBC FONSI
    NDBC DQC Handbook

 FAQ
 Visitor Information
 
USA.gov is the U.S. government's official web portal to all federal, state and local government web resources and services.

Station RIXA2 - Rocky Island, AK Image indicating link to RSS feed of recent meteorological observations for station RIXA2

Owned and maintained by Marine Exchange of Alaska
C-MAN Station
58.177 N 135.052 W (58°10'37" N 135°3'6" W)

Site elevation: 13.7 m above mean sea level
Air temp height: 2.7 m above site elevation
Anemometer height: 2.7 m above site elevation
Barometer elevation: 16.5 m above mean sea level

Search And Rescue (SAR) Data

Meteorological Observations from Nearby Stations and Ships Image indicating link to RSS feed of recent meteorological observations near station RIXA2

Large icon indicates selected station.
yellow diamond Stations with recent data
red diamond Stations with no data in last 8 hours
     (24 hours for tsunami stations)


Conditions at RIXA2 as of
(3:52 pm AKST on 12/12/2018)
0052 GMT on 12/13/2018:
     

Click on the graph icon in the table below to see a time series plot of the last five days of that observation.

5-day plot - Wind Direction Wind Direction (WDIR): N ( 360 deg true )
5-day plot - Wind Speed Wind Speed (WSPD): 34 kts
5-day plot - Wind Gust Wind Gust (GST): 46 kts
5-day plot - Atmospheric Pressure Atmospheric Pressure (PRES): 29.01 in
5-day plot - Air Temperature Air Temperature (ATMP): 31.1 °F
5-day plot - Wind Chill Wind Chill (CHILL): 14.7 °F
5-day plot - Wind Speed at 10 Meters Wind Speed at 10 meters (WSPD10M): 41 kts
5-day plot - Wind Speed at 10 Meters Wind Speed at 20 meters (WSPD20M): 45 kts
5-day plot - Wind Speed, Wind Gust and Atmospheric Pressure Combined plot of Wind Speed, Gust, and Air Pressure
Previous observations
5-day plot - Wind Direction 5-day plot - Wind Speed 5-day plot - Wind Gust 5-day plot - Wave Height 5-day plot - Dominant Wave Period 5-day plot - Average Period 5-day plot - Mean Wave Direction 5-day plot - Atmospheric Pressure 5-day plot - Pressure Tendency 5-day plot - Air Temperature 5-day plot - Water Temperature 5-day plot - Dew Point 5-day plot - Salinity 5-day plot - Visibility 5-day plot - Tide (above MLLW)
MM DD TIME
(AKST)
WDIR WSPD
kts
GST
kts
WVHT
ft
DPD
sec
APD
sec
MWD PRES
in
PTDY
in
ATMP
°F
WTMP
°F
DEWP
°F
SAL
psu
VIS
nmi
TIDE
ft
1212 3:42 pm N 32 41----29.01- 32.7-----
1212 3:32 pm N 29 38----29.01- 34.2-----
1212 3:22 pm N 30 36----29.02- 34.2-----
1212 3:12 pm N 32 41----29.01- 33.8-----
1212 2:54 pm N 34 41----29.03- 34.2-----
1212 2:45 pm N 25 33----29.04- 35.4-----
1212 2:32 pm N 24 30----29.05- 35.4-----
1212 2:23 pm N 23 30----29.07- 35.6-----
1212 2:12 pmNNE 13 26----29.08- 36.5-----
1212 2:02 pmNNE 12 22----29.09- 36.5-----
1212 1:52 pmNNE 11 20----29.10- 36.1-----
1212 1:42 pmNNE 11 20----29.11- 35.8-----
1212 1:32 pm NE 11 17----29.11- 35.8-----
1212 1:23 pm NE 10 19----29.13- 36.0-----
1212 1:12 pmENE 16 23----29.14- 36.0-----
1212 1:04 pm E 19 26----29.14- 35.8-----
121212:53 pm E 17 26----29.16- 36.0-----
121212:43 pm E 15 23----29.18- 35.8-----
121212:33 pm E 13 20----29.19- 35.8-----
121212:25 pm E 13 20----29.20- 35.8-----
121212:17 pm E 17 27----29.20- 36.0-----
121212:05 pm E 15 23----29.21- 35.8-----
121211:53 am E 15 21----29.22- 35.8-----
121211:43 am E 15 20----29.24- 35.4-----
121211:33 am E 15 22----29.25- 35.4-----
121211:23 am E 14 20----29.26- 35.2-----
121211:13 am E 13 18----29.27- 35.1-----
121211:02 am E 14 20----29.28- 34.9-----
121210:53 am E 13 19----29.29- 35.1-----
121210:42 am E 13 19----29.30- 34.9-----
121210:32 am E 14 22----29.31- 34.9-----
121210:22 am E 14 22----29.32- 34.9-----
121210:12 am E 16 22----29.33- 34.9-----
121210:02 am E 12 18----29.34- 35.1-----
1212 9:52 am E 13 21----29.35- 35.1-----
1212 9:42 am E 13 18----29.35- 35.1-----
1212 9:33 am E 12 17----29.35- 34.5-----
1212 9:22 amESE 13 16----29.35- 34.3-----
1212 9:12 am E 16 22----29.35- 34.2-----
1212 9:03 am E 15 23----29.35- 34.2-----
1212 8:52 amESE 18 24----29.35- 34.0-----
1212 8:43 amESE 22 29----29.34- 33.8-----
1212 8:32 amESE 23 30----29.35- 33.8-----
1212 8:23 amESE 24 35----29.35- 34.0-----
1212 8:12 amESE 27 38----29.34- 34.0-----
1212 8:02 am SE 30 38----29.33- 34.3-----
1212 7:52 am SE 27 37----29.34- 34.9-----
1212 7:43 am SE 27 35----29.34- 34.9-----
1212 7:32 am SE 26 33----29.34- 34.9-----
1212 7:22 am SE 25 31----29.35- 35.1-----
1212 7:12 am SE 25 32----29.35- 34.9-----
1212 7:02 am SE 27 35----29.35- 34.7-----
1212 6:52 am SE 25 32----29.35- 34.2-----
1212 6:42 amESE 26 33----29.34- 34.2-----
1212 6:32 am SE 27 35----29.34- 34.0-----
1212 6:22 am SE 27 36----29.34- 34.3-----
1212 6:13 am SE 24 34----29.35- 35.1-----
1212 6:03 am SE 24 31----29.35- 35.2-----
1212 5:54 am SE 26 34----29.35- 35.2-----
1212 5:43 am SE 25 33----29.35- 34.9-----
1212 5:32 am SE 26 36----29.34- 34.7-----
1212 5:22 am SE 28 39----29.34- 34.5-----
1212 5:12 am SE 27 35----29.33- 34.0-----
1212 5:02 amESE 22 32----29.35- 33.3-----
1212 4:52 am SE 22 31----29.34- 32.7-----
1212 4:42 am SE 25 32----29.34- 33.1-----
1212 4:32 am SE 26 38----29.34- 33.3-----
1212 4:22 am SE 27 36----29.33- 33.6-----
1212 4:12 am SE 27 35----29.32- 33.6-----
1212 4:02 amESE 29 36----29.31- 33.3-----
1212 3:52 am SE 28 36----29.31- 33.3-----
1212 3:42 am SE 26 34----29.31- 34.0-----
1212 3:32 amESE 21 26----29.33- 34.3-----
1212 3:22 amESE 19 25----29.33- 33.6-----
1212 3:12 amESE 17 24----29.33- 33.3-----
1212 3:02 amESE 17 23----29.34- 33.4-----
1212 2:52 am SE 20 25----29.33- 34.0-----
1212 2:42 am S 16 22----29.33- 34.3-----
1212 2:32 amSSE 16 20----29.32- 34.0-----
1212 2:22 amSSE 19 25----29.31- 34.3-----
1212 2:12 am SE 22 29----29.31- 34.7-----
1212 2:02 amESE 19 24----29.30- 34.3-----
1212 1:52 amESE 20 28----29.30- 34.0-----
1212 1:42 am SE 23 30----29.29- 33.8-----
1212 1:32 am SE 21 28----29.28- 34.5-----
1212 1:22 am SE 22 29----29.28- 35.2-----
1212 1:12 amESE 20 26----29.28- 35.2-----
1212 1:02 amESE 16 21----29.28- 34.9-----
121212:52 amESE 18 24----29.28- 34.5-----
121212:42 am SE 20 25----29.27- 34.7-----
121212:32 am SE 21 28----29.25- 34.9-----
121212:22 am SE 22 29----29.24- 35.6-----
121212:12 amSSE 16 24----29.08- 36.0-----
121212:03 am SE 14 20----28.86- 36.1-----
121111:53 pm S 11 14----28.86- 36.0-----
121111:43 pmSSW 12 15----28.86- 36.0-----
121111:33 pm SW 11 18----28.84- 35.8-----
121111:22 pm SW 18 22----28.83- 35.8-----
121111:12 pm SW 19 27----28.85- 36.0-----
121111:02 pm S 18 24----28.89- 36.3-----
121110:52 pmSSE 18 22----28.87- 36.1-----
121110:42 pm S 15 18----28.89- 36.1-----
121110:32 pm S 14 19----28.89- 36.3-----
121110:22 pmSSE 12 16----28.93- 37.0-----
121110:12 pm S 11 16----28.93- 37.0-----
121110:02 pmSSW 9 20----28.91- 36.7-----
1211 9:52 pm S 5 8----28.91- 36.3-----
1211 9:42 pmSSE 6 11----28.90- 36.1-----
1211 9:32 pm S 5 9----28.87- 35.8-----
1211 9:22 pmWSW 6 7----28.85- 35.6-----
1211 9:12 pmWSW 8 10----28.84- 35.6-----
1211 9:02 pm SW 10 12----28.86- 36.0-----
1211 8:52 pm SW 12 17----28.86- 36.1-----
1211 8:42 pm S 11 17----28.84- 35.8-----
1211 8:32 pmSSE 12 17----28.84- 35.8-----
1211 8:22 pm S 15 19----28.85- 35.8-----
1211 8:12 pm S 14 20----28.84- 35.8-----
1211 8:02 pm S 14 18----28.82- 35.6-----
1211 7:52 pmSSE 17 25----28.86- 36.0-----
1211 7:42 pm SE 21 29----28.88- 36.1-----
1211 7:32 pm SE 25 35----28.86- 36.1-----
1211 7:22 pm SE 28 36----28.84- 35.6-----
1211 7:12 pm SE 25 36----28.84- 35.8-----
1211 7:02 pm SE 18 24----28.84- 36.0-----
1211 6:52 pm SE 20 27----28.86- 36.3-----
1211 6:42 pm SE 27 38----28.90- 36.7-----
1211 6:32 pm SE 26 34----28.90- 36.7-----
1211 6:22 pm SE 22 34----28.90- 36.7-----
1211 6:12 pm SE 19 25----28.90- 36.9-----
1211 6:03 pm SE 21 26----28.92- 37.0-----
1211 5:53 pm SE 23 30----28.92- 37.0-----
1211 5:42 pm SE 21 28----28.92- 36.9-----
1211 5:32 pm SE 16 25----28.89- 36.5-----
1211 5:22 pm SE 17 21----28.90- 36.7-----
1211 5:13 pm SE 19 24----28.91- 36.9-----
1211 5:02 pm SE 21 27----28.89- 36.7-----
1211 4:53 pm SE 20 27----28.88- 36.5-----
1211 4:42 pm SE 11 16----28.84- 36.1-----
1211 4:32 pm SE 15 25----28.83- 36.0-----
1211 4:23 pm SE 19 24----28.90- 36.5-----
1211 4:12 pm SE 18 22----28.90- 36.7-----
1211 4:02 pm SE 19 23----28.91- 36.9-----
1211 3:52 pm SE 19 25----28.93- 37.2-----

Description of Measurements

Links which are specific to this station are listed below:

Real Time Data in tabular form for the last forty-five days.

Historical Data & Climatic Summaries for quality controlled data for the current month, previous months, and previous years.